Flag Island, MN

6:34 PM CDT on July 24, 2017 (GMT -0500)
Flag Island

Weather History for KFGN - March, 2013

Change the Weather History Date:

Sunday, March 17, 2013

  Actual Average Record
Temperature  
Mean Temperature -3 °F -  
Max Temperature 19 °F 26 °F 64 °F (2012)
Min Temperature -25 °F 8 °F -25 °F (2013)
Degree Days  
Heating Degree Days 68    
Moisture  
Dew Point -9 °F    
Average Humidity 67    
Maximum Humidity 93    
Minimum Humidity 52    
Precipitation  
Precipitation 0.00 in - - ()
Sea Level Pressure  
Sea Level Pressure 30.05 in    
Wind  
Wind Speed 6 mph (SSE)    
Max Wind Speed 18 mph    
Max Gust Speed 24 mph    
Visibility 9 miles    
Events Snow    
Averages and records for this station are not official NWS values.
T = Trace of Precipitation, MM = Missing Value Source: NWS Daily Summary

Daily Weather History Graph

Daily Weather History Graph

Search for Another Location

Airport or City:

Trip Planner

Search our weather history database for the weather conditions in past years. The results will help you decide how hot, cold, wet, or windy it might be!

Date:

Astronomy

Mar. 17, 2013 Rise Set
Actual Time 7:28 AM CDT 7:28 PM CDT
Civil Twilight 6:56 AM CDT 8:00 PM CDT
Nautical Twilight 6:19 AM CDT 8:37 PM CDT
Astronomical Twilight 5:40 AM CDT 9:16 PM CDT
Moon 10:11 AM CDT (3/17) 1:05 AM CDT (3/17)
Length of Visible Light 13h 03m
Length of Day
12h 00m
Waxing Crescent, 31% of the Moon is Illuminated
Mar 17
Waxing Crescent
Mar 19
First Quarter
Mar 27
Full
Apr 2
Last Quarter
Apr 10
New

Hourly Weather History & Observations

Time (CDT) Temp. Windchill Dew Point Humidity Pressure Visibility Wind Dir Wind Speed Gust Speed Precip Events Conditions
12:13 AM -5.8 °F -18.4 °F -16.6 °F 60% 30.25 in 10.0 mi WNW 5.8 mph - N/A   Clear
12:33 AM -9.4 °F -24.3 °F -18.4 °F 65% 30.25 in 10.0 mi WNW 6.9 mph - N/A   Clear
12:54 AM -7.6 °F -23.4 °F -18.4 °F 59% 30.25 in 10.0 mi WNW 8.1 mph - N/A   Clear
1:13 AM -11.2 °F - -20.2 °F 64% 30.25 in 10.0 mi Calm Calm - N/A   Clear
1:33 AM -11.2 °F - -18.4 °F 70% 30.25 in 10.0 mi Calm Calm - N/A   Clear
1:54 AM -11.2 °F - -18.4 °F 70% 30.25 in 10.0 mi Calm Calm - N/A   Clear
2:13 AM -11.2 °F - -18.4 °F 70% 30.25 in 10.0 mi Calm Calm - N/A   Clear
2:33 AM -9.4 °F - -18.4 °F 65% 30.25 in 10.0 mi Calm Calm - N/A   Clear
2:54 AM -9.4 °F - -16.6 °F 71% 30.25 in 10.0 mi Calm Calm - N/A   Clear
3:13 AM -11.2 °F - -18.4 °F 70% 30.25 in 10.0 mi Calm Calm - N/A   Clear
3:33 AM -11.2 °F - -18.4 °F 70% 30.25 in 10.0 mi Calm Calm - N/A   Clear
3:54 AM -11.2 °F - -18.4 °F 70% 30.24 in 10.0 mi Calm Calm - N/A   Clear
4:13 AM -16.6 °F - -20.2 °F 84% 30.23 in 10.0 mi Calm Calm - N/A   Clear
4:34 AM -16.6 °F - -20.2 °F 84% 30.23 in 10.0 mi Calm Calm - N/A   Clear
4:53 AM -20.2 °F - -25.6 °F 76% 30.22 in 10.0 mi Calm Calm - N/A   Clear
5:13 AM -18.4 °F - -22.0 °F 84% 30.21 in 10.0 mi Calm Calm - N/A   Clear
5:33 AM -16.6 °F -26.8 °F -23.8 °F 70% 30.20 in 10.0 mi SE 3.5 mph - N/A   Clear
5:53 AM -18.4 °F - -23.8 °F 76% 30.19 in 10.0 mi Calm Calm - N/A   Clear
6:14 AM -25.6 °F -39.8 °F -31.0 °F 76% 30.20 in 10.0 mi South 4.6 mph - N/A   Clear
6:54 AM -23.8 °F -39.8 °F -29.2 °F 76% 30.19 in 10.0 mi SSE 5.8 mph - N/A   Clear
7:13 AM -23.8 °F -41.6 °F -29.2 °F 76% 30.19 in 10.0 mi South 6.9 mph - N/A   Clear
7:33 AM -20.2 °F -30.9 °F -25.6 °F 76% 30.19 in 10.0 mi SSE 3.5 mph - N/A   Clear
7:54 AM -20.2 °F -30.9 °F -25.6 °F 76% 30.18 in 10.0 mi SSE 3.5 mph - N/A   Clear
8:13 AM -20.2 °F - -25.6 °F 76% 30.16 in 10.0 mi Calm Calm - N/A   Clear
8:33 AM -18.4 °F - -23.8 °F 76% 30.15 in 10.0 mi Calm Calm - N/A   Clear
8:54 AM -20.2 °F -30.9 °F -27.4 °F 69% 30.16 in 7.0 mi SW 3.5 mph - N/A   Clear
9:13 AM -20.2 °F -33.5 °F -25.6 °F 76% 30.17 in 10.0 mi SSW 4.6 mph - N/A   Scattered Clouds
9:33 AM -18.4 °F -28.9 °F -23.8 °F 76% 30.16 in 10.0 mi SSE 3.5 mph - N/A   Mostly Cloudy
9:53 AM -16.6 °F -29.3 °F -20.2 °F 84% 30.16 in 10.0 mi South 4.6 mph - N/A   Overcast
10:13 AM -14.8 °F -27.2 °F -20.2 °F 77% 30.15 in 10.0 mi SSE 4.6 mph - N/A   Overcast
10:33 AM -11.2 °F -23.0 °F -18.4 °F 70% 30.13 in 10.0 mi SSE 4.6 mph - N/A   Overcast
10:53 AM -7.6 °F -25.7 °F -14.8 °F 71% 30.11 in 10.0 mi SSE 10.4 mph - N/A   Overcast
11:13 AM -5.8 °F -22.4 °F -13.0 °F 71% 30.10 in 10.0 mi South 9.2 mph - N/A   Scattered Clouds
11:33 AM -4.0 °F -16.3 °F -11.2 °F 71% 30.10 in 10.0 mi SSE 5.8 mph - N/A   Clear
11:53 AM -2.2 °F -18.0 °F -11.2 °F 66% 30.10 in 10.0 mi SSE 9.2 mph - N/A   Clear
12:13 PM 1.4 °F -17.6 °F -9.4 °F 61% 30.08 in 10.0 mi SSE 15.0 mph - N/A   Clear
12:33 PM 3.2 °F -14.6 °F -7.6 °F 61% 30.08 in 10.0 mi SSE 13.8 mph - N/A   Scattered Clouds
12:54 PM 3.2 °F -15.3 °F -7.6 °F 61% 30.06 in 10.0 mi SSE 15.0 mph - N/A   Mostly Cloudy
1:13 PM 6.8 °F -11.8 °F -5.8 °F 56% 30.05 in 10.0 mi SSE 17.3 mph - N/A   Overcast
1:33 PM 6.8 °F -11.3 °F -5.8 °F 56% 30.03 in 10.0 mi SSE 16.1 mph - N/A   Overcast
1:54 PM 8.6 °F -8.9 °F -4.0 °F 57% 30.02 in 10.0 mi SSE 16.1 mph - N/A   Mostly Cloudy
2:13 PM 8.6 °F -8.9 °F -2.2 °F 62% 30.02 in 10.0 mi SSE 16.1 mph - N/A   Scattered Clouds
2:34 PM 10.4 °F -6.0 °F -4.0 °F 52% 30.01 in 10.0 mi SSE 15.0 mph - N/A   Overcast
2:53 PM 10.4 °F -6.6 °F -2.2 °F 57% 29.99 in 10.0 mi SSE 16.1 mph - N/A   Mostly Cloudy
3:13 PM 10.4 °F -5.4 °F -2.2 °F 57% 29.99 in 10.0 mi SSE 13.8 mph - N/A   Overcast
3:34 PM 12.2 °F -1.8 °F -2.2 °F 53% 29.98 in 10.0 mi SSE 11.5 mph - N/A   Overcast
3:53 PM 12.2 °F -1.8 °F -2.2 °F 53% 29.97 in 10.0 mi SSE 11.5 mph - N/A   Overcast
4:13 PM 12.2 °F -1.0 °F -0.4 °F 57% 29.96 in 10.0 mi SSE 10.4 mph - N/A   Overcast
4:34 PM 14.0 °F -0.2 °F 3.2 °F 62% 29.95 in 10.0 mi South 12.7 mph - N/A   Overcast
4:53 PM 14.0 °F -0.2 °F -0.4 °F 53% 29.94 in 10.0 mi SSE 12.7 mph - N/A   Overcast
5:13 PM 15.8 °F 2.7 °F 1.4 °F 53% 29.93 in 10.0 mi South 11.5 mph - N/A   Overcast
5:34 PM 15.8 °F 4.2 °F 3.2 °F 58% 29.92 in 10.0 mi SSE 9.2 mph - N/A   Overcast
5:53 PM 15.8 °F 4.2 °F 3.2 °F 58% 29.91 in 10.0 mi SSE 9.2 mph - N/A   Mostly Cloudy
6:13 PM 15.8 °F 5.1 °F 3.2 °F 58% 29.90 in 10.0 mi SSE 8.1 mph - N/A   Mostly Cloudy
6:34 PM 15.8 °F 6.1 °F 1.4 °F 53% 29.89 in 10.0 mi SE 6.9 mph - N/A   Overcast
6:53 PM 15.8 °F 4.2 °F 3.2 °F 58% 29.88 in 10.0 mi SSE 9.2 mph - N/A   Overcast
7:13 PM 15.8 °F 4.2 °F 5.0 °F 62% 29.87 in 10.0 mi SSE 9.2 mph - N/A   Overcast
7:34 PM 15.8 °F 3.4 °F 6.8 °F 68% 29.86 in 10.0 mi SSE 10.4 mph - N/A   Overcast
7:53 PM 15.8 °F 4.2 °F 8.6 °F 73% 29.85 in 10.0 mi SSE 9.2 mph - N/A   Overcast
8:13 PM 17.6 °F 10.7 °F 6.8 °F 63% 29.84 in 10.0 mi SE 4.6 mph - N/A   Overcast
8:34 PM 17.6 °F 8.2 °F 5.0 °F 58% 29.83 in 10.0 mi SE 6.9 mph - N/A Snow Light Snow
8:53 PM 17.6 °F 5.0 °F 6.8 °F 63% 29.83 in 10.0 mi SE 11.5 mph - N/A Snow Light Snow
9:13 PM 17.6 °F 8.2 °F 6.8 °F 63% 29.81 in 10.0 mi SE 6.9 mph - N/A   Overcast
9:53 PM 17.6 °F 9.3 °F 6.8 °F 63% 29.79 in 7.0 mi SE 5.8 mph - N/A Snow Light Snow
10:13 PM 19.4 °F 10.4 °F 6.8 °F 58% 29.77 in 10.0 mi SE 6.9 mph - N/A   Overcast
10:34 PM 19.4 °F 9.5 °F 6.8 °F 58% 29.76 in 10.0 mi SE 8.1 mph - N/A   Overcast
10:53 PM 19.4 °F 4.1 °F 8.6 °F 63% 29.76 in 3.0 mi SSE 18.4 mph 24.2 mph N/A Snow Light Snow
11:13 PM 17.6 °F 2.7 °F 14.0 °F 86% 29.75 in 1.0 mi SSE 16.1 mph 19.6 mph N/A Snow Snow
11:34 PM 17.6 °F 2.7 °F 14.0 °F 86% 29.75 in 1.0 mi SSE 16.1 mph - N/A Snow Snow
11:53 PM 17.6 °F 5.0 °F 15.8 °F 93% 29.75 in 1.0 mi SSE 11.5 mph - N/A Snow Snow